Location: El Boquerón
(3.1908°N, 75.6036°W)
Time: 21:24:20
(UTC+00:00)

Daily predictions for brighter satellites

Satellite Brightness Start Highest point End
(mag) Time Altitude Azimuth Time Altitude Azimuth Time Altitude Azimuth
Ariane H10 4.3 21:36:24 10° W 21:41:10 85° N 22:20:11 10° E
Ariane H10 4.3 21:36:23 10° W 21:41:11 85° N 22:20:11 10° E
ARIANE 5 R/B 3.2 23:08:58 10° SW 23:11:27 26° SSE 23:17:47 10° ESE
Cosmos 1553 Rocket 4.0 23:05:32 10° S 23:11:34 67° E 23:17:36 10° NNE
Cosmos 2266 Rocket 4.5 23:07:38 10° NNW 23:13:34 66° W 23:19:33 10° S
YAOGAN 1 3.9 23:12:10 10° ESE 23:15:07 19° ENE 23:18:05 10° NNE
Ariane H10 4.3 22:55:35 10° W 23:15:40 86° N 23:19:26 10° E
CZ-4C R/B 4.0 23:08:41 10° N 23:16:08 31° ENE 23:23:51 10° SE
Cosmos 2278 3.9 23:11:58 10° S 23:17:31 54° ESE 23:23:02 10° NNE
Ariane H10+ 3.1 23:05:44 10° W 23:18:00 81° N 23:24:01 10° E
ERS-1 4.5 23:15:53 10° SSE 23:20:59 81° ENE 23:26:01 10° N
SAR-Lupe-4 4.2 23:19:03 10° S 23:22:33 59° WSW 23:26:03 10° NNW
SL-8 R/B 3.8 23:22:54 10° SW 23:27:38 80° NW 23:32:21 10° NE
GPS 2-12 Rocket1 3.4 23:28:58 10° SW 23:33:09 52° SSE 23:36:50 13° E
Cosmos 1805 4.0 23:30:29 10° NNE 23:33:14 24° E 23:35:58 10° SE
ATLAS 5 CENTAUR R/B 2.1 23:36:22 10° NW 23:37:37 14° N 23:38:59 11° NNE
MOS 1 Rocket 4.2 23:35:55 10° S 23:40:17 52° W 23:44:55 10° NNW
Meteor 1-5 Rocket 4.3 23:35:18 10° N 23:40:50 83° W 23:46:36 10° S
Cosmos 2360 Rocket 2.5 23:37:24 10° S 23:42:50 48° ESE 23:47:52 12° NNE
Resurs 01 Rocket 3.3 23:40:26 10° ESE 23:42:02 14° E 23:42:02 14° E
Cosmos 2263 Rocket 3.2 23:40:39 10° NNE 23:45:03 23° ENE 23:49:27 10° SE
CZ-2D R/B 3.4 23:42:48 10° SSE 23:46:59 67° ENE 23:51:08 10° N
Cosmos 1417 Rocket 4.4 23:43:34 10° S 23:49:51 77° E 23:56:01 10° N
Cosmos 2333 Rocket 2.3 23:45:03 10° SSW 23:50:44 82° WNW 23:56:28 10° NNE
SJ-7 4.0 23:50:11 10° SSE 23:53:50 64° ENE 23:57:28 10° N
Cosmos 1812 Rocket 3.5 23:50:44 10° S 23:55:05 86° W 23:59:23 10° N
PSLV R/B 3.4 23:51:58 10° SSE 23:55:54 55° ENE 23:59:48 10° N
